Change the Weather History Date:

Tuesday, October 16, 2012

  Actual Average Record
Temperature  
Mean Temperature 62 °F -  
Max Temperature 75 °F 76 °F 85 °F (2011)
Min Temperature 50 °F 54 °F 44 °F (2010)
Degree Days  
Heating Degree Days 3    
Growing Degree Days 12 (Base 50)    
Moisture  
Dew Point 51 °F    
Average Humidity 72    
Maximum Humidity 95    
Minimum Humidity 33    
Precipitation  
Precipitation 0.00 in - - ()
Sea Level Pressure  
Sea Level Pressure 29.95 in    
Wind  
Wind Speed 2 mph (NNE)    
Max Wind Speed 8 mph    
Max Gust Speed -    
Visibility 10 miles    
Events Rain    
Averages and records for this station are not official NWS values.
T = Trace of Precipitation, MM = Missing Value Source: NWS Daily Summary

Daily Weather History Graph

Daily Weather History Graph

Search for Another Location

Airport or City:

Trip Planner

Search our weather history database for the weather conditions in past years. The results will help you decide how hot, cold, wet, or windy it might be!

Date:

Astronomy

Oct. 16, 2012 Rise Set
Actual Time 6:50 AM CDT 6:10 PM CDT
Civil Twilight 6:25 AM CDT 6:35 PM CDT
Nautical Twilight 5:56 AM CDT 7:04 PM CDT
Astronomical Twilight 5:28 AM CDT 7:32 PM CDT
Moon 8:05 AM CDT (10/16) 7:03 PM CDT (10/16)
Length of Visible Light 12h 10m
Length of Day
11h 20m
New Moon, 2% of the Moon is Illuminated
Oct 16
New Moon
Oct 21
First Quarter
Oct 29
Full
Nov 6
Last Quarter
Nov 13
New

Hourly Weather History & Observations

Time (CDT) Temp. Dew Point Humidity Pressure Visibility Wind Dir Wind Speed Gust Speed Precip Events Conditions
12:55 AM 53.4 °F 51.1 °F 92% 29.99 in 10.0 mi Calm Calm - N/A   Clear
1:03 AM 53.6 °F 50.0 °F 88% 29.99 in 10.0 mi Calm Calm - N/A Rain Light Rain
1:12 AM 51.8 °F 50.0 °F 94% 29.98 in 10.0 mi Calm Calm - N/A   Clear
1:55 AM 52.7 °F 51.1 °F 94% 29.98 in 10.0 mi Calm Calm - 0.00 in   Clear
2:55 AM 50.7 °F 49.3 °F 95% 29.98 in 10.0 mi Calm Calm - N/A   Clear
3:55 AM 50.5 °F 49.1 °F 95% 29.98 in 10.0 mi Calm Calm - N/A   Clear
4:55 AM 50.5 °F 48.2 °F 92% 29.99 in 10.0 mi ENE 4.6 mph - N/A   Clear
5:55 AM 51.3 °F 48.0 °F 89% 29.99 in 10.0 mi NNE 4.6 mph - N/A   Clear
6:55 AM 51.6 °F 47.8 °F 87% 29.99 in 10.0 mi Calm Calm - N/A   Clear
7:55 AM 55.9 °F 49.8 °F 80% 30.01 in 10.0 mi NNE 3.5 mph - N/A   Clear
8:55 AM 61.0 °F 50.0 °F 67% 30.01 in 10.0 mi NE 5.8 mph - N/A   Clear
9:55 AM 67.1 °F 50.2 °F 55% 30.02 in 10.0 mi NNE 4.6 mph - N/A   Clear
10:55 AM 72.1 °F 47.5 °F 41% 30.00 in 10.0 mi ENE 8.1 mph - N/A   Clear
11:55 AM 74.3 °F 46.6 °F 37% 29.99 in 10.0 mi North 8.1 mph - N/A   Clear
12:55 PM 74.5 °F 45.0 °F 35% 29.96 in 10.0 mi Variable 4.6 mph - N/A   Clear
1:55 PM 74.7 °F 43.9 °F 33% 29.94 in 10.0 mi NNE 4.6 mph - N/A   Clear
2:55 PM 74.3 °F 45.0 °F 35% 29.92 in 10.0 mi NNE 6.9 mph - N/A   Clear
3:55 PM 73.9 °F 46.0 °F 37% 29.90 in 10.0 mi NNE 5.8 mph - N/A   Clear
4:55 PM 72.9 °F 47.1 °F 40% 29.89 in 10.0 mi NNE 3.5 mph - N/A   Clear
5:55 PM 67.8 °F 52.7 °F 58% 29.89 in 10.0 mi Calm Calm - N/A   Clear
6:55 PM 64.0 °F 56.7 °F 77% 29.89 in 10.0 mi Calm Calm - N/A   Clear
7:55 PM 62.8 °F 57.0 °F 81% 29.89 in 10.0 mi Calm Calm - N/A   Clear
8:46 PM 62.6 °F 57.2 °F 82% 29.90 in 10.0 mi Calm Calm - N/A Rain Light Rain
8:53 PM 62.6 °F 57.2 °F 82% 29.90 in 10.0 mi Calm Calm - N/A   Clear
8:55 PM 61.9 °F 56.1 °F 81% 29.90 in 10.0 mi Calm Calm - 0.00 in   Clear
9:55 PM 60.1 °F 56.7 °F 88% 29.91 in 10.0 mi Calm Calm - N/A   Clear
10:55 PM 59.5 °F 56.5 °F 90% 29.92 in 10.0 mi Calm Calm - N/A   Clear
11:55 PM 59.0 °F 55.6 °F 88% 29.91 in 10.0 mi Calm Calm - N/A   Clear